AirNav   ProFlight Series 2 Aviation Headset
 
 1020 users online  

NE71 Immanuel Medical Center Heliport
Omaha, Nebraska, USA

GOING TO OMAHA?


FAA INFORMATION EFFECTIVE 18 JUNE 2020

Location

FAA Identifier: NE71
Lat/Long: 41-19-18.7100N 096-01-15.6500W
41-19.311833N 096-01.260833W
41.3218639,-96.0210139
(estimated)
Elevation: 1246 ft. / 380 m (estimated)
Variation: 06E (1985)
Time zone: UTC -5 (UTC -6 during Standard Time)
Zip code: 68152

Heliport Operations

Heliport use: Private use, MEDICAL.
Activation date: 09/1974
Control tower: no
ARTCC: MINNEAPOLIS CENTER
FSS: COLUMBUS FLIGHT SERVICE STATION
Attendance: CONTINUOUS
Wind indicator: no
Segmented circle: no

Heliport Communications

WX ASOS at OMA (6 nm E): PHONE 402-271-7515
WX AWOS-3 at BTA (7 nm NW): 120.225 (402-426-0448)
WX AWOS-3 at MLE (9 nm SW): 118.25 (402-895-6778)
WX AWOS-3 at CBF (12 nm E): 126.575 (712-323-1542)

Nearby radio navigation aids

VOR radial/distance  VOR name  Freq  Var
OVRr298/15.8OMAHA VORTAC116.3008E
SCBr116/32.2SCRIBNER VOR/DME111.0006E

 
NDB name  Hdg/Dist  Freq  Var  ID
PLATTSMOUTH343/23.232905EPMV .--. -- ...-
WAHOO073/26.540006EAHQ .- .... --.-

Heliport Services

Airframe service: NONE
Powerplant service: NONE

Runway Information

Helipad H1

Dimensions: 50 x 50 ft. / 15 x 15 m
Surface: concrete
Latitude: 41-19.311833N
Longitude: 096-01.260833W
Elevation: 1246.0 ft.
Traffic pattern: leftleft
Obstructions: bldg, 21 ft. from runway

Heliport Ownership and Management from official FAA records

Ownership: Privately-owned
Owner: IMMANUEL MEDICAL CENTER
6901 N 72ND ST
OMAHA, NE 68122
Phone (402) 572-2010
Manager: CAROL MCCORMICK
6901 N 72ND ST
OMAHA, NE 68122
Phone (402) 572-2010

Additional Remarks

FOR CD CTC OMAHA APCH AT 402-682-4395.

Instrument Procedures

There are no published instrument procedures at NE71.

Some nearby airports with instrument procedures:

KOMA - Eppley Airfield (6 nm E)
KBTA - Blair Municipal Airport (7 nm NW)
KMLE - Millard Airport (9 nm SW)
KCBF - Council Bluffs Municipal Airport (12 nm E)
KOFF - Offutt Air Force Base (13 nm SE)
 
Loc | Ops | Rwys | IFR | FBO | Links
Com | Nav | Svcs | Stats | Notes

Silverhawk Aviation, Inc.
AirBoss

 
Area around NE71 (Immanuel Medical Center Heliport)
 
Road maps at: MapQuest Bing Google
 
Aerial photo
No photo
 
Sectional chart

 
Airport distance calculator
Flying to Immanuel Medical Center Heliport? Find the distance to fly.

From to NE71

Sunrise and sunset
Times for 07-Jul-2020
 Local
(UTC-5)
 Zulu
(UTC)
Morning civil twilight05:2610:26
Sunrise06:0011:00
Sunset20:5901:59
Evening civil twilight21:3202:32

Current date and time
Zulu (UTC)  08-Jul-2020 02:34:23
Local (UTC-5)  07-Jul-2020 21:34:23
 
METAR
KOMA 
5nm E 
080152Z 17010KT 10SM CLR 31/21 A2986 RMK AO2 SLP099 T03110211 $
KBTA 
7nm NW 
080215Z AUTO 16004KT 10SM CLR 27/22 A2988 RMK AO2 T02710215
KMLE 
9nm SW 
080215Z AUTO 13004KT 10SM CLR 29/23 A2986 RMK AO2 T02930227
KCBF 
12nm E 
080215Z AUTO 16006KT 10SM CLR 27/23 A2987 RMK AO2
KOFF 
13nm S 
080156Z AUTO 14007KT 10SM CLR 29/23 A2986 RMK AO2 SLPNO T02900229 $
TAF
KOMA 
5nm E 
072028Z 0720/0818 18012KT P6SM FEW060 SCT200 FM072300 16008KT P6SM SKC FM080200 16009KT P6SM SKC
KOFF 
13nm S 
072000Z 0720/0824 18012KT 9999 FEW180 QNH2990INS BECMG 0800/0801 15009KT 9999 SKC QNH2984INS BECMG 0813/0814 19012G20KT 9999 SCT050 QNH2982INS TX34/0722Z TN22/0810Z
NOTAMs
Click for the latest NOTAMs
NOTAMs are issued by the DoD/FAA and will open in a separate window not controlled by AirNav.

 

 
 

Would you like to see your business listed on this page?

 If your business provides an interesting product or service to pilots, flight crews, aircraft, or users of the Immanuel Medical Center Heliport, you should consider listing it here.  To start the listing process, click on the button below
 
Add a business
 

Other Pages about Immanuel Medical Center Heliport

Update a link
 
Copyright © AirNav, LLC. All rights reserved. Privacy Policy  Contact